{"data":{"norad_id":68811,"epoch":"2026-05-25T02:42:40.385088Z","epoch_age_seconds":75716,"freshness":"FRESH","line1":"1 68811U 26089K   26145.11296742  .00292328  00000+0  18829-2 0  9994","line2":"2 68811  97.2845 351.7644 0001433  58.7832 301.3574 15.75331640  5064","mean_motion":15.7533164,"eccentricity":0.0001433,"inclination_deg":97.2845,"raan_deg":351.7644,"arg_perigee_deg":58.7832,"mean_anomaly_deg":301.3574,"bstar":0.0018829,"rev_number":506,"period_min":91.409323817047,"perigee_km":342.72438936104,"apogee_km":344.65086429909,"semimajor_km":6721.8246268301,"source":"CELESTRAK","updated_at":"2026-05-25T13:38:22.041824Z"}}